Regional Weather Roundup
Issued by NWS Upton, NY

Home | Current Version | Previous Version | Text Only | Print | Product List | Glossary On
Versions: 1 2 3 4 5 6 7 8 9 10 11 12 13 14 15 16 17 18 19 20 21 22 23 24 25 26 27 28 29 30 31 32 33 34 35 36 37 38 39 40 41 42 43 44 45 46 47 48 49 50
000
ASUS41 KOKX 181705
RWROKX

REGIONAL WEATHER ROUNDUP
NATIONAL WEATHER SERVICE NEW YORK NY
1200 PM EST THU DEC 18 2014

NOTE: "FAIR" INDICATES FEW OR NO CLOUDS BELOW 12,000 FEET WITH NO
SIGNIFICANT WEATHER AND/OR OBSTRUCTIONS TO VISIBILITY.

NYZ071-072-176-178-NJZ106-104-181800-
NEW YORK CITY METRO AREA


CITY           SKY/WX    TMP DP  RH WIND       PRES   REMARKS
CENTRAL PARK   CLOUDY    40  22  48 W8G17     29.99F WCI  34
LAGUARDIA APRT PTSUNNY   40  24  53 NW22G30   29.96F WCI  30
KENNEDY INTL   PTSUNNY   42  22  44 W17G26    29.98F
NEWARK/LIBERTY PTSUNNY   41  23  48 W14G23    29.98F
BRNX BOT. GARD   N/A    N/A N/A N/A W7        29.96F
TETERBORO      CLOUDY    40  24  53 NW14G21   29.97F WCI  32
$$

NYZ177-179-078>081-181800-
LONG ISLAND NEW YORK

CITY           SKY/WX    TMP DP  RH WIND       PRES   REMARKS
FARMINGDALE    PTSUNNY   42  24  49 NW15G26   29.95F
ISLIP          PTSUNNY   42  24  49 W18G24    29.91F
SHIRLEY        MOSUNNY   42  25  50 W18G26    29.92F
WESTHAMPTON    SUNNY     43  24  47 NW18G24   29.92F
MONTAUK POINT    N/A     42  27  55 W17G32    29.88F
$$

NYZ052-065-067-181800-
HUDSON VALLEY

CITY           SKY/WX    TMP DP  RH WIND       PRES   REMARKS
WHITE PLAINS   PTSUNNY   39  23  52 W18G26    29.92F WCI  30
NEWBURGH       MOSUNNY   39  27  60 W23G35    29.93F WCI  29
MONTGOMERY     PTSUNNY   38  23  55 NW17G24   29.93F WCI  28
POUGHKEEPSIE   PTSUNNY   40  24  53 NW8       29.92F WCI  34
ALBANY         CLOUDY    36  26  67 NW17      29.92F WCI  26
$$

NJZ001-105-106-008-010-013-015-019>022-104-181800-
NEW JERSEY

CITY           SKY/WX    TMP DP  RH WIND       PRES   REMARKS
NEWARK/LIBERTY PTSUNNY   41  23  48 W14G23    29.98F
TETERBORO      CLOUDY    40  24  53 NW14G21   29.97F WCI  32
CALDWELL       CLOUDY    40  23  50 NW17      29.98F WCI  31
MORRISTOWN     CLOUDY    41  25  52 NW12G21   29.99F
SOMERVILLE     CLOUDY    40  22  48 NW14G26   29.99F WCI  32
SUSSEX         CLOUDY    38  24  57 NW10G21   29.96F WCI  31
ANDOVER          N/A     38  23  55 VRB7      29.98S WCI  33
TRENTON        CLOUDY    39  21  48 W12G18    30.02F WCI  32
MILLVILLE      SUNNY     40  22  48 NW16G28   30.06F WCI  31
ATLANTIC CITY  SUNNY     40  22  48 W22G30    30.03F WCI  30
WRIGHTSTOWN    CLOUDY    39  22  49 NW16      30.00F WCI  31
TOMS RIVER     SUNNY     39  19  45 NW23G30   30.01F WCI  29
BELMAR         PTSUNNY   41  21  45 W17G26    29.99F
$$

PAZ047>061-062-071-181800-
EASTERN PENNSYLVANIA

CITY           SKY/WX    TMP DP  RH WIND       PRES   REMARKS
PHILADELPHIA   CLOUDY    38  22  52 W16G24    30.08F WCI  29
ALLENTOWN      CLOUDY    39  21  48 W12       30.02F WCI  32
SCRANTON       CLOUDY    35  23  61 NW12G23   29.99F WCI  27
$$

CTZ002-004>006-009-010-012-RIZ004-006-007-MAZ004-011-015-181800-
SOUTHERN NEW ENGLAND
 IN CT

CITY           SKY/WX    TMP DP  RH WIND       PRES   REMARKS
BRADLEY INTL   CLOUDY    40  26  57 NW13G25   29.87F WCI  32
HARTFORD       CLOUDY    39  26  59 W14G30    29.89F WCI  31
DANBURY        PTSUNNY   39  22  50 NW9G18    29.91F WCI  33
WTRBRY/OXFORD  PTSUNNY   37  21  52 NW10      29.89F WCI  30
BRIDGEPORT     CLOUDY    44  25  47 NW12G21   29.91F
MERIDEN        CLOUDY    39  26  59 NW5G18    29.90F
NEW HAVEN      PTSUNNY   43  25  49 NW10G20   29.91F
CHESTER        FAIR      39  28  65 NW15G30   29.87F WCI  31
GROTON         CLOUDY    40  27  59 NW17G33   29.86F WCI  31
WILLIMANTIC    CLOUDY    40  27  59 NW13G20   29.86F WCI  32

 IN RI

CITY           SKY/WX    TMP DP  RH WIND       PRES   REMARKS
PROVIDENCE     PTSUNNY   42  27  55 NW16G29   29.82S
BLOCK ISLAND   CLOUDY    43  27  52 NW17G24   29.84F
WESTERLY       CLOUDY    41  27  57 NW14G25   29.85F

 IN MA

CITY           SKY/WX    TMP DP  RH WIND       PRES   REMARKS
BOSTON         PTSUNNY   43  30  60 W20G26    29.77S
WORCESTER      PTSUNNY   36  27  69 W21G29    29.77S WCI  25
WESTFIELD      CLOUDY    39  26  59 W13G29    29.85F WCI  31
PROVINCETOWN   CLOUDY    43  32  65 NW22G32   29.75S
NANTUCKET      MOSUNNY   44  30  57 W17       29.78F
$$

ANZ330-335-338-340-345-350-353-355-181800-
COASTAL MARINE OBSERVATIONS


STATION/POSITION TIME  SKY/WX   TEMP    WIND        PRES    VSBY  WAVE
                                AIR SEA DIR/SP/G                  HT/PER
                 (UTC)          (F)     (DEG/KT/KT) (MB)    (MI)  (FT/S)
NY HARB ENTRANCE 1700            40 47  280/ 21/ 25 1015.0          3/ 4
4S FIRE IS       1700               46                N/A           4/ 5
20S FIRE ISLAND  1600            41 49              1015.3          5/ 6
23SW MTP         1700                                 N/A           5/ 7
HUDSON CANYON    1700            41 55  310/ 21/ 27 1014.0          9/ 7
EXECUTION ROCKS  1700            42 42  300/ 17/ 25   N/A
WESTERN LI SOUND 1700            40     280/ 17/ 23   N/A           2/ 3
CENTRAL LI SOUND 1600            40 45  290/ 16/ 19   N/A           3/ 5
EASTERN LI SOUND NOT AVBL
ROBBINS REEF     1700            39     110/ 17/ 23 1013.8
$$


>>>>>>>>>>>>>>>>>>>>>>>>>>>> KEY <<<<<<<<<<<<<<<<<<<<<<<<<<<
>                                                          <
>     SKY/WX - SKY CONDITION/PRESENT WEATHER               <
>     TMP    - TEMPERATURE IN FAHRENHEIT                   <
>     DP     - DEWPOINT IN FAHRENHEIT                      <
>     RH     - RELATIVE HUMIDITY IN PERCENT                <
>     WIND   - DIRECTION AND SPEED IN MPH                  <
>     PRES   - MEAN SEA LEVEL PRESSURE IN INCHES OF HG     <
>     WCI    - WIND CHILL INDEX                            <
>     VSB    - VISIBILITY IN MILES                         <
>     HX     - HEAT INDEX                                  <
>     TC     - TEMPERATURE IN CELSIUS                      <
>     VRB    - VARIABLE WIND DIRECTION                     <
>                                                          <
>>>>>>>>>>>>>>>>>>>>>>>>>>>> KEY <<<<<<<<<<<<<<<<<<<<<<<<<<<





USA.gov is the U.S. government's official web portal to all federal, state and local government web resources and services.